STARLINK-34572, 64720

Orbit data source: Space-Track

STARLINK-34572, 64720 is a payload satellite owned by SpaceX/Seattle (US) in LEO that was launched on Sat, 28 Jun 2025 UTC via an FALCON 9 launch vehicle from the Air Force Western Test Range (AFWTR). Payload-class satellites include a variety of spacecraft equipped with specific instruments for various scientific and technological missions. These include communications satellites like Starlink; space stations such as the ISS; scientific satellites like the Hubble; Earth observation satellites from companies like Planet Labs, Umbra, and HawkEye 360; GPS; miniature CubeSats for education and research; and military/defense satellites.

Loading next visibility...
Identifier
64720, 2025-142AA
Orbit
LEO
Country
Flag of USUS
Related business
Manufacturer
SpaceX/Seattle
Mission
Operational Commercial Communications
Bus & Motor
STARLINK V2MO, Unknown motor
Mass
575 kg wet, ~530 kg dry
Launch date (UTC)
2025-06-28 (2 months ago)
Launch vehicle
FALCON 9
Launch site
Air Force Western Test Range (AFWTR)
Object type
Payload
Rocket body
Debris
Shape & HBR
Box + 1 Pan, 14.5 m
Radar Cross Section
41.120 m², Large (>1 m²)

Expand to show TLE details & history
Last TLE update: 19 hours ago

TLE from 19 hours ago
0 STARLINK-34572
1 64720U 25142AA  25242.26136181  .00059378  00000-0  13478-2 0  9993
2 64720  70.0024  79.2312 0003770 271.1982  88.8768 15.42735040 10923
Epoch: 2025-08-30T06:16Z
TLE epoch observation values (Epoch: 2025-08-30T06:16:21.66Z)
Latitude
-0.00001°
Longitude
6.44275°
Altitude
440.464 km
Speed
7.648 km/s
True Right ascension
05h 16m 55s
True Declination
0° 00' 00"
Sunlit
Object was in daylight at epoch
Visualization orbit readout
Latitude
Unknown
Longitude
Unknown
Altitude
Unknown
Speed
Unknown
Apparent Right ascension
Unknown
Apparent Declination
Unknown
Sunlit
N/A
Visualization observer readout
Local Sidereal Time
16:44:22
Azimuth
Unknown
Elevation
Unknown
Doppler factor
Unknown
Orbital elements
Apogee altitude
438.518 km
Perigee altitude
433.38 km
Semi-major axis
6,814.086 km
Eccentricity
0.00038
Inclination
70.0024°
RAAN
79.2312°
Arg. of periapsis
271.1982°
True anomaly
88.91999°
Mean anomaly
88.8768°
Eccentric anomaly
88.8984°
Mean motion
3.85862 °/min
Orbital period
93.3 mins
BSTAR
0.0013478
Loading maneuver chart data...
Computing Atmospheric mass density...
Loading historical data...
Loading historical data...
Loading historical data...
Loading historical data...
Loading historical data...
Loading historical data...
Loading historical data...

Documentation

Showing up to 5 results
|